Satellite: MET-3/5
Catalog number: 21655
Epoch time:      09218.06096707
Element set:    0695
Inclination:      082.5584 deg
RA of node:       171.2668 deg
Eccentricity:    0.0014987
Arg of perigee:   058.0416 deg
Mean anomaly:     302.2162 deg
Mean motion:   13.17020146 rev/day
Decay rate:        5.1e-07 rev/day^2
Epoch rev:           86419
Checksum:              304

Satellite: MET-2/21
Catalog number: 22782
Epoch time:      09217.78658182
Element set:    0530
Inclination:      082.5503 deg
RA of node:       142.6720 deg
Eccentricity:    0.0021450
Arg of perigee:   204.2758 deg
Mean anomaly:     155.7402 deg
Mean motion:   13.83639308 rev/day
Decay rate:        8.9e-07 rev/day^2
Epoch rev:           80446
Checksum:              301

Satellite: OKEAN-4
Catalog number: 23317
Epoch time:      09217.70173606
Element set:    0983
Inclination:      082.5415 deg
RA of node:       288.2829 deg
Eccentricity:    0.0021423
Arg of perigee:   197.2402 deg
Mean anomaly:     162.8110 deg
Mean motion:   14.82712185 rev/day
Decay rate:       1.42e-06 rev/day^2
Epoch rev:           79970
Checksum:              297

Satellite: NOAA-14
Catalog number: 23455
Epoch time:      09218.06531936
Element set:    0715
Inclination:      098.9066 deg
RA of node:       295.5656 deg
Eccentricity:    0.0010093
Arg of perigee:   053.6764 deg
Mean anomaly:     306.5340 deg
Mean motion:   14.13766688 rev/day
Decay rate:       -8.0e-08 rev/day^2
Epoch rev:           75297
Checksum:              332

Satellite: NOAA-15
Catalog number: 25338
Epoch time:      09217.84355300
Element set:    0031
Inclination:      098.5866 deg
RA of node:       205.9696 deg
Eccentricity:    0.0009522
Arg of perigee:   274.2876 deg
Mean anomaly:     085.7179 deg
Mean motion:   14.24778052 rev/day
Decay rate:       1.79e-06 rev/day^2
Epoch rev:           58384
Checksum:              343

Satellite: RESURS
Catalog number: 25394
Epoch time:      09218.60377637
Element set:     278
Inclination:      098.3375 deg
RA of node:       248.3801 deg
Eccentricity:    0.0002513
Arg of perigee:   064.2595 deg
Mean anomaly:     295.8845 deg
Mean motion:   14.24187287 rev/day
Decay rate:       -1.0e-07 rev/day^2
Epoch rev:           57557
Checksum:              328

Satellite: FENGYUN1
Catalog number: 25730
Epoch time:      09218.02886913
Element set:    0868
Inclination:      098.7556 deg
RA of node:       186.6991 deg
Eccentricity:    0.0023496
Arg of perigee:   073.7717 deg
Mean anomaly:     286.6035 deg
Mean motion:   14.07944482 rev/day
Decay rate:       8.26e-06 rev/day^2
Epoch rev:           52733
Checksum:              351

Satellite: OKEAN-0
Catalog number: 25860
Epoch time:      09217.53713508
Element set:     749
Inclination:      097.7900 deg
RA of node:       196.7660 deg
Eccentricity:    0.0001725
Arg of perigee:   054.0777 deg
Mean anomaly:     306.0585 deg
Mean motion:   14.73582818 rev/day
Decay rate:        3.0e-07 rev/day^2
Epoch rev:           54041
Checksum:              306

Satellite: NOAA-16
Catalog number: 26536
Epoch time:      09217.87637370
Element set:    0509
Inclination:      099.1767 deg
RA of node:       222.7477 deg
Eccentricity:    0.0011192
Arg of perigee:   137.7982 deg
Mean anomaly:     222.4040 deg
Mean motion:   14.12526594 rev/day
Decay rate:      -1.78e-06 rev/day^2
Epoch rev:           45731
Checksum:              324

Satellite: NOAA-17
Catalog number: 27453
Epoch time:      09218.02635444
Element set:    0513
Inclination:      098.4805 deg
RA of node:       275.3710 deg
Eccentricity:    0.0011235
Arg of perigee:   343.4716 deg
Mean anomaly:     016.6084 deg
Mean motion:   14.24081510 rev/day
Decay rate:        8.9e-07 rev/day^2
Epoch rev:           36984
Checksum:              294

Satellite: NOAA-18
Catalog number: 28654
Epoch time:      09218.02986077
Element set:    0000
Inclination:      098.9077 deg
RA of node:       160.8881 deg
Eccentricity:    0.0013615
Arg of perigee:   219.8090 deg
Mean anomaly:     140.2090 deg
Mean motion:   14.11277273 rev/day
Decay rate:       3.20e-06 rev/day^2
Epoch rev:           21698
Checksum:              302

Satellite: NOAA-19
Catalog number: 33591
Epoch time:      09218.02064335
Element set:    0204
Inclination:      098.7464 deg
RA of node:       162.4910 deg
Eccentricity:    0.0015177
Arg of perigee:   100.6381 deg
Mean anomaly:     259.6493 deg
Mean motion:   14.10976234 rev/day
Decay rate:       -2.8e-07 rev/day^2
Epoch rev:           02546
Checksum:              295

/EX
SB KEPS @ AMSAT  $ORB09218.M
Orbital Elements  09218.MISC

HR AMSAT ORBITAL ELEMENTS FOR MANNED AND MISCELLANEOUS SATELLITES
FROM WA5QGD FORT WORTH,TX August 6, 2009
Send Subscribe/unsubscribe to KEPS at 
http://www.amsat.org/mailman/listinfo/keps
BID: ORB09218.M
TO ALL RADIO AMATEURS BT

Satellite: HUBBLE
Catalog number: 20580
Epoch time:      09216.05936093
Element set:    0430
Inclination:      028.4681 deg
RA of node:       149.8546 deg
Eccentricity:    0.0003459
Arg of perigee:   072.7348 deg
Mean anomaly:     287.3621 deg
Mean motion:   15.00819410 rev/day
Decay rate:       2.57e-06 rev/day^2
Epoch rev:           85705
Checksum:              299

Satellite: ISS
Catalog number: 25544
Epoch time:      09218.76983787
Element set:     364
Inclination:      051.6391 deg
RA of node:       047.1561 deg
Eccentricity:    0.0007839
Arg of perigee:   301.7887 deg
Mean anomaly:     058.2878 deg
Mean motion:   15.73514354 rev/day
Decay rate:      6.047e-05 rev/day^2
Epoch rev:           61392
Checksum:              340

Satellite: CO-58
Catalog number: 28895
Epoch time:      09217.68999802
Element set:    0363
Inclination:      098.0513 deg
RA of node:       106.9054 deg
Eccentricity:    0.0017786
Arg of perigee:   189.8623 deg
Mean anomaly:     170.2258 deg
Mean motion:   14.59785994 rev/day
Decay rate:       1.03e-06 rev/day^2
Epoch rev:           20095
Checksum:              360

Satellite: FALCON
Catalog number: 30776
Epoch time:      09218.84054226
Element set:     629
Inclination:      035.4327 deg
RA of node:       152.0796 deg
Eccentricity:    0.0001790
Arg of perigee:   343.5835 deg
Mean anomaly:     016.4825 deg
Mean motion:   15.03280196 rev/day
Decay rate:       1.95e-06 rev/day^2
Epoch rev:           13272
Checksum:              293

Satellite: MAST
Catalog number: 31126
Epoch time:      09218.08146277
Element set:    0656
Inclination:      097.9858 deg
RA of node:       270.5935 deg
Eccentricity:    0.0095570
Arg of perigee:   124.6100 deg
Mean anomaly:     236.4156 deg
Mean motion:   14.53510369 rev/day
Decay rate:        2.0e-07 rev/day^2
Epoch rev:           12228
Checksum:              293

Satellite: CAPE1
Catalog number: 31130
Epoch time:      09218.72081104
Element set:     666
Inclination:      097.9852 deg
RA of node:       269.2749 deg
Eccentricity:    0.0103496
Arg of perigee:   128.5251 deg
Mean anomaly:     232.5241 deg
Mean motion:   14.52077259 rev/day
Decay rate:       -7.5e-07 rev/day^2
Epoch rev:           12202
Checksum:              287

Satellite: COMPASS
Catalog number: 32787
Epoch time:      09217.80730855
Element set:    0432
Inclination:      097.9396 deg
RA of node:       281.2049 deg
Eccentricity:    0.0014910
Arg of perigee:   228.8205 deg
Mean anomaly:     131.1720 deg
Mean motion:   14.81635122 rev/day
Decay rate:       1.10e-06 rev/day^2
Epoch rev:           06879
Checksum:              291

Satellite: AAUSAT2
Catalog number: 32788
Epoch time:      09217.70352410
Element set:    0429
Inclination:      097.9381 deg
RA of node:       281.1676 deg
Eccentricity:    0.0014483
Arg of perigee:   230.8122 deg
Mean anomaly:     129.1799 deg
Mean motion:   14.81759863 rev/day
Decay rate:       1.89e-06 rev/day^2
Epoch rev:           06878
Checksum:              338

Satellite: DO-64
Catalog number: 32789
Epoch time:      09218.06306496
Element set:    0448
Inclination:      097.9446 deg
RA of node:       281.7195 deg
Eccentricity:    0.0014705
Arg of perigee:   227.3966 deg
Mean anomaly:     132.6010 deg
Mean motion:   14.81758687 rev/day
Decay rate:       1.17e-06 rev/day^2
Epoch rev:           06883
Checksum:              345

Satellite: CO-66
Catalog number: 32791
Epoch time:      09218.73396049
Element set:     422
Inclination:      097.9406 deg
RA of node:       282.1565 deg
Eccentricity:    0.0015146
Arg of perigee:   224.6054 deg
Mean anomaly:     135.3940 deg
Mean motion:   14.81461292 rev/day
Decay rate:        4.4e-07 rev/day^2
Epoch rev:            6889
Checksum:              320

Satellite: RS-30
Catalog number: 32953
Epoch time:      09217.52995585
Element set:    0374
Inclination:      082.4973 deg
RA of node:       225.9266 deg
Eccentricity:    0.0020683
Arg of perigee:   072.1667 deg
Mean anomaly:     288.1672 deg
Mean motion:   12.43002587 rev/day
Decay rate:        1.0e-07 rev/day^2
Epoch rev:           05452
Checksum:              313

Satellite: TACSAT-3
Catalog number: 35001
Epoch time:      09218.69840913
Element set:      66
Inclination:      040.4567 deg
RA of node:       298.5637 deg
Eccentricity:    0.0023647
Arg of perigee:   179.8944 deg
Mean anomaly:     180.1879 deg
Mean motion:   15.39008262 rev/day
Decay rate:      1.531e-05 rev/day^2
Epoch rev:            1213
Checksum:              310

Satellite: PHARMSAT
Catalog number: 35002
Epoch time:      09218.59416585
Element set:      65
Inclination:      040.4715 deg
RA of node:       298.7217 deg
Eccentricity:    0.0026416
Arg of perigee:   183.3947 deg
Mean anomaly:     176.6691 deg
Mean motion:   15.39768254 rev/day
Decay rate:      1.472e-05 rev/day^2
Epoch rev:            1211
Checksum:              308

